[[{"header":{"parameterUnit":"m.s-1","parameterCategory":1,"la1":30.2991,"la2":30.254,"lo1":-89.0895,"lo2":-89.0444,"dy":0.0017,"dx":0.0017,"nx":28,"ny":28,"refTime":"2025-12-24T03:00:00:Z","depth":0,"parameterNumber":2,"parameterNumberName":"U-component_of_WINDS"},"data":[0,0,0,0,0,0,0,0,0,0,0,0,0,0,0,0,0,0,0,0,0,0,0,0,0,0,0,0,0,0,0,0,0,0,0,0,0,0,0,0,0,0,0,0,0,0,0,0,0,0,0,0,0,0,0,0,0,0,1.3099,1.31,0,1.315,1.315,1.3151,1.3144,1.3143,1.3143,1.3142,1.3194,1.3196,1.3198,0,0,0,0,0,0,0,0,0,0,0,0,0,1.2997,1.2999,1.3099,1.31,1.31,1.315,1.315,1.3151,1.3144,1.3143,1.3142,1.3141,1.3194,1.3196,1.3199,0,0,0,0,0,0,0,0,0,0,0,0,0,1.3044,1.3,1.3099,1.3103,1.3104,1.315,1.3151,1.3151,1.3145,1.3143,1.3142,1.3141,1.3193,1.3196,1.3199,1.3244,0,0,1.3209,1.321,0,0,0,0,0,0,0,0,1.3041,1.3048,1.3102,1.3103,1.3104,1.3139,1.3134,1.3183,1.3145,1.3129,1.3142,1.314,1.3177,1.3182,1.3194,1.3247,1.3249,1.3209,1.3211,1.3213,1.3214,0,0,0,0,0,0,0,1.3038,1.3045,1.3119,1.3102,1.3104,1.3102,1.3108,1.3143,1.316,1.313,1.313,1.3136,1.3177,1.3191,1.3195,1.325,1.3209,1.3212,1.3214,1.3215,1.3344,1.3345,0,0,0,0,0,0,1.3034,1.3043,1.3118,1.3121,1.3069,1.3105,1.3111,1.3129,1.3159,1.3162,1.3137,1.3136,1.3186,1.3191,1.3197,1.3253,1.3213,1.3216,1.3218,1.3342,1.3344,1.3346,0,0,0,0,0,0,1.3032,1.304,1.3116,1.3082,1.3091,1.3108,1.3129,1.3131,1.3144,1.3164,1.3167,1.3148,1.3185,1.3192,1.3233,1.3254,1.3217,1.322,1.3341,1.3343,1.3345,1.3364,0,0,0,0,0,0,1.3029,1.304,1.3057,1.3082,1.3093,1.3151,1.313,1.3133,1.315,1.3148,1.3175,1.3178,1.3185,1.3228,1.3236,1.3258,1.3223,1.3339,1.3342,1.3344,1.3362,1.3367,1.3371,0,0,0,0,0,1.3025,1.306,1.3058,1.3067,1.3115,1.3152,1.3158,1.3165,1.3152,1.3169,1.3182,1.3177,1.325,1.3232,1.3241,1.3265,1.3337,1.3341,1.3344,1.3359,1.3366,1.3371,0,0,0,0,0,0,1.3037,1.3064,1.3061,1.3106,1.3126,1.315,1.3173,1.3171,1.3196,1.3193,1.3201,1.3207,1.3248,1.326,1.3239,1.331,1.3292,1.3297,1.3301,1.3307,1.3311,1.3308,1.3225,0,0,0,0,0,1.3045,1.3072,1.3094,1.3131,1.3142,1.3156,1.3172,1.3175,1.3197,1.3206,1.3222,1.3244,1.3272,1.329,1.3317,1.3363,1.3369,1.3384,1.3388,1.3392,1.3397,1.3423,1.343,1.3356,1.3356,1.3356,0,0,1.3061,1.3079,1.3096,1.3134,1.3151,1.3179,1.3163,1.3194,1.3216,1.3211,1.325,1.3263,1.3287,1.3331,1.3351,1.3343,1.3418,1.3396,1.3399,1.3402,1.3427,1.3434,1.344,1.3358,1.3358,1.3358,0,0,1.3106,1.3122,1.3155,1.3172,1.3197,1.3206,1.3214,1.3239,1.3247,1.3287,1.3284,1.331,1.3358,1.3376,1.3391,1.3443,1.344,1.3452,1.3476,1.3502,1.3507,1.3512,1.3532,1.3538,1.3456,1.3456,1.3456,0,1.3123,1.3166,1.3172,1.3204,1.3221,1.3218,1.3252,1.3268,1.3301,1.3313,1.3303,1.3363,1.3379,1.3428,1.3441,1.3453,1.3463,1.3449,1.3506,1.3511,1.3516,1.3535,1.3542,1.3457,1.3457,1.3457,1.3457,0,1.3187,1.3217,1.324,1.3272,1.3292,1.3324,1.3336,1.3355,1.3357,1.3367,1.3408,1.3427,1.3458,1.347,1.3472,1.3519,1.3513,1.3504,1.3486,1.3524,1.3542,1.3549,1.3459,1.3459,1.3458,1.3458,0,0,1.3241,1.3276,1.3284,1.3299,1.3327,1.335,1.3383,1.3413,1.343,1.3453,1.348,1.3521,1.3514,1.3531,1.3535,1.3557,1.3598,1.3546,1.3547,1.3556,1.3652,1.3659,1.3667,1.3596,1.3597,1.3598,1.365,0,1.3289,1.3346,1.3353,1.3404,1.3432,1.343,1.3458,1.3479,1.3489,1.3515,1.3526,1.3555,1.3543,1.3553,1.3575,1.3589,1.3618,1.3585,1.3622,1.3624,1.3617,1.3676,1.3683,1.373,1.3657,1.3658,1.3659,0,1.3352,1.3377,1.3431,1.3456,1.3468,1.3493,1.3522,1.3546,1.3569,1.3575,1.3595,1.3596,1.363,1.3611,1.3658,1.3635,1.3651,1.366,1.3662,1.3666,1.3644,1.3682,1.3746,1.3753,1.367,1.3669,1.3668,0,1.3387,1.3434,1.3472,1.3485,1.3514,1.3532,1.3546,1.3568,1.3586,1.3611,1.3622,1.3651,1.3667,1.3689,1.3698,1.3683,1.3745,1.3726,1.3752,1.3752,1.3765,1.3764,1.3833,1.3775,1.3775,1.3775,1.3774,0,1.344,1.3473,1.3488,1.3512,1.355,1.3557,1.3594,1.3606,1.3626,1.3653,1.3652,1.3677,1.3687,1.3714,1.3721,1.376,1.3767,1.3773,1.3775,1.3773,1.3772,1.3784,1.3781,1.3776,1.3776,1.3776,1.3775,0,1.3485,1.3496,1.3538,1.3563,1.357,1.3597,1.3618,1.3641,1.3651,1.3685,1.3693,1.3709,1.3741,1.3752,1.379,1.3795,1.3839,1.3838,1.3832,1.3832,1.3857,1.3855,1.3936,1.3947,1.3881,1.3882,1.3882,0,1.3518,1.3544,1.3571,1.3589,1.3603,1.3631,1.365,1.3658,1.3677,1.3706,1.3726,1.3757,1.3783,1.3833,1.3848,1.3878,1.3877,1.3904,1.3882,1.388,1.3878,1.3877,1.388,1.3908,1.3909,1.3909,1.391,0,1.3576,1.3581,1.3607,1.3636,1.3658,1.3681,1.3704,1.3718,1.373,1.3752,1.3784,1.3803,1.3842,1.3874,1.3904,1.3917,1.3916,1.3916,1.3924,1.3923,1.3918,1.3922,1.3843,1.3915,1.3914,1.3914,1.3913,1.3913,1.3617,1.364,1.3663,1.3693,1.371,1.3731,1.3755,1.3768,1.3795,1.3827,1.3831,1.3865,1.3888,1.3929,1.3944,1.3971,1.3964,1.3975,1.3978,1.398,1.3983,1.3914,1.3977,1.3977,1.3977,1.3976,1.3976,0,1.3676,1.369,1.3718,1.3749,1.3773,1.3769,1.3793,1.3813,1.3844,1.3866,1.3891,1.3928,1.3958,1.3976,1.4007,1.4025,1.4025,1.4033,1.4032,1.4035,1.3987,1.3978,1.4032,1.4032,1.4032,1.4032,1.4032,1.4032,1.3709,1.3748,1.3755,1.3803,1.3817,1.3851,1.3866,1.3885,1.3903,1.3944,1.397,1.3981,1.4001,1.4033,1.4061,1.4066,1.4077,1.4086,1.4089,1.4044,1.4038,1.4033,1.4024,1.4088,1.4088,1.4135,1.4136,1.4136]},{"header":{"parameterUnit":"m.s-1","parameterCategory":1,"la1":30.2991,"la2":30.254,"lo1":-89.0895,"lo2":-89.0444,"dy":0.0017,"dx":0.0017,"nx":28,"ny":28,"refTime":"2025-12-24T03:00:00:Z","depth":0,"parameterNumber":3,"parameterNumberName":"V-component_of_WINDS"},"data":[0,0,0,0,0,0,0,0,0,0,0,0,0,0,0,0,0,0,0,0,0,0,0,0,0,0,0,0,0,0,0,0,0,0,0,0,0,0,0,0,0,0,0,0,0,0,0,0,0,0,0,0,0,0,0,0,0,0,0.9692,0.9692,0,0.965,0.965,0.9649,0.9634,0.9634,0.9634,0.9634,0.9588,0.9586,0.9585,0,0,0,0,0,0,0,0,0,0,0,0,0,0.9755,0.9754,0.9692,0.9692,0.9691,0.965,0.965,0.9649,0.9634,0.9634,0.9634,0.9635,0.9588,0.9587,0.9585,0,0,0,0,0,0,0,0,0,0,0,0,0,0.9722,0.9753,0.9692,0.9679,0.9677,0.965,0.965,0.9649,0.9634,0.9634,0.9634,0.9635,0.9589,0.9587,0.9585,0.9567,0,0,0.9578,0.9578,0,0,0,0,0,0,0,0,0.9724,0.9719,0.9681,0.968,0.9678,0.9648,0.9655,0.9622,0.9634,0.965,0.9634,0.9635,0.9607,0.9604,0.9595,0.9565,0.9563,0.9578,0.9577,0.9576,0.9575,0,0,0,0,0,0,0,0.9726,0.9721,0.9675,0.9681,0.9679,0.9673,0.9669,0.9648,0.9628,0.9649,0.9648,0.9643,0.9606,0.9597,0.9594,0.9563,0.9578,0.9576,0.9575,0.9574,0.9515,0.9514,0,0,0,0,0,0,0.9731,0.9723,0.9677,0.9674,0.9702,0.9672,0.9667,0.9657,0.9628,0.9624,0.9643,0.9643,0.9601,0.9596,0.9592,0.9569,0.9576,0.9574,0.9573,0.9515,0.9515,0.9514,0,0,0,0,0,0,0.9732,0.9727,0.9679,0.9698,0.9692,0.9671,0.966,0.9656,0.9647,0.9624,0.962,0.9638,0.9601,0.9595,0.9574,0.9568,0.9573,0.9571,0.9515,0.9515,0.9514,0.9524,0,0,0,0,0,0,0.9734,0.9728,0.9722,0.9698,0.9691,0.9662,0.9659,0.9655,0.9644,0.9643,0.9618,0.9614,0.96,0.9577,0.9572,0.9565,0.957,0.9516,0.9515,0.9515,0.9524,0.9524,0.9524,0,0,0,0,0,0.9737,0.9726,0.9722,0.9716,0.9683,0.9662,0.9657,0.9643,0.9644,0.9637,0.9622,0.9614,0.9569,0.9575,0.9569,0.9561,0.9516,0.9515,0.9515,0.9524,0.9524,0.9524,0,0,0,0,0,0,0.9748,0.9722,0.9718,0.9699,0.9683,0.9659,0.965,0.9644,0.9626,0.9626,0.9608,0.9602,0.9582,0.9569,0.9576,0.9542,0.9542,0.954,0.9551,0.9551,0.9551,0.9554,0.9568,0,0,0,0,0,0.9749,0.9734,0.9712,0.9698,0.969,0.9672,0.9662,0.9652,0.9634,0.9627,0.961,0.9592,0.9573,0.9561,0.9543,0.9522,0.9516,0.9514,0.9514,0.9514,0.9512,0.9499,0.9497,0.9512,0.9512,0.9512,0,0,0.9749,0.9733,0.9725,0.97,0.9686,0.967,0.9666,0.965,0.9637,0.9624,0.9603,0.959,0.9568,0.9546,0.9536,0.9535,0.9506,0.9513,0.9513,0.9511,0.9498,0.9496,0.9495,0.9511,0.9511,0.9511,0,0,0.9742,0.9729,0.9716,0.9702,0.9682,0.9669,0.9666,0.9643,0.9634,0.9613,0.9603,0.9587,0.9556,0.954,0.9528,0.9515,0.9507,0.9509,0.9508,0.9495,0.9494,0.9493,0.9487,0.9486,0.9508,0.9508,0.9508,0,0.9745,0.9722,0.9709,0.9693,0.9682,0.967,0.9655,0.9642,0.9616,0.9608,0.9608,0.9568,0.9552,0.9527,0.9523,0.9514,0.9509,0.9512,0.9496,0.9494,0.9493,0.9487,0.9485,0.9508,0.9508,0.9508,0.9508,0,0.9727,0.9711,0.9702,0.9679,0.9666,0.9651,0.9634,0.9622,0.9614,0.9601,0.9579,0.956,0.9537,0.953,0.9522,0.9503,0.9503,0.9499,0.9499,0.9492,0.9487,0.9484,0.9509,0.9508,0.9508,0.9508,0,0,0.9726,0.9695,0.9692,0.9681,0.9657,0.9644,0.9628,0.9606,0.9597,0.9579,0.9564,0.9537,0.9534,0.952,0.9509,0.9498,0.9488,0.9496,0.9495,0.9494,0.9465,0.9467,0.9465,0.9482,0.9482,0.9482,0.9466,0,0.9716,0.9687,0.9674,0.9651,0.9636,0.9624,0.9609,0.9592,0.958,0.9563,0.9549,0.953,0.9528,0.9519,0.9508,0.9492,0.9481,0.9492,0.9467,0.9466,0.9473,0.9462,0.9465,0.9451,0.9464,0.9464,0.9463,0,0.97,0.9683,0.9659,0.9636,0.9629,0.9617,0.9596,0.9581,0.9561,0.9552,0.9537,0.9527,0.9507,0.9508,0.948,0.9488,0.9476,0.9467,0.9466,0.9463,0.9464,0.9458,0.9447,0.9444,0.946,0.946,0.946,0,0.9701,0.9672,0.9654,0.9645,0.9618,0.9609,0.9597,0.9578,0.9565,0.9547,0.9538,0.9517,0.9505,0.9488,0.9472,0.9474,0.9445,0.9445,0.9436,0.9437,0.943,0.9431,0.9417,0.9424,0.9424,0.9424,0.9424,0,0.9691,0.9676,0.9654,0.9643,0.9625,0.961,0.9593,0.958,0.9562,0.9547,0.9535,0.952,0.95,0.9482,0.9469,0.9447,0.9442,0.9433,0.943,0.9434,0.9435,0.9426,0.9426,0.9423,0.9423,0.9424,0.9424,0,0.9689,0.9674,0.9653,0.963,0.9623,0.9611,0.9591,0.9578,0.9565,0.9546,0.954,0.9519,0.9497,0.9479,0.9451,0.9442,0.9419,0.9415,0.9426,0.9424,0.9417,0.9417,0.9396,0.9392,0.9402,0.9402,0.9402,0,0.9683,0.9672,0.9647,0.9637,0.9626,0.9609,0.9596,0.958,0.9568,0.9543,0.9533,0.9511,0.9493,0.9459,0.944,0.9418,0.9413,0.9407,0.9409,0.9414,0.9412,0.9413,0.9411,0.9407,0.9407,0.9407,0.9407,0,0.9674,0.9667,0.9651,0.9631,0.9617,0.9601,0.9584,0.9576,0.9556,0.9542,0.9521,0.9506,0.9478,0.9455,0.9431,0.9417,0.9408,0.9406,0.9403,0.9407,0.9413,0.9409,0.9425,0.9406,0.9406,0.9406,0.9406,0.9406,0.967,0.9659,0.964,0.9622,0.9607,0.9592,0.9579,0.9564,0.9546,0.9523,0.9514,0.9491,0.947,0.9437,0.9423,0.9404,0.9403,0.9398,0.9397,0.9396,0.9396,0.9417,0.9399,0.9399,0.9399,0.9399,0.9399,0,0.966,0.9647,0.963,0.9608,0.9593,0.9587,0.9567,0.9555,0.9536,0.9518,0.95,0.9474,0.9453,0.9432,0.9408,0.9397,0.9392,0.9392,0.9392,0.9389,0.9399,0.9404,0.9396,0.9396,0.9396,0.9396,0.9396,0.9396,0.9653,0.9634,0.9624,0.9597,0.9584,0.9563,0.9553,0.9537,0.9523,0.9495,0.9478,0.9465,0.9445,0.942,0.9399,0.9393,0.9385,0.9385,0.9378,0.9388,0.9388,0.9389,0.9393,0.9383,0.9383,0.9369,0.9369,0.9369]}]]